Woodward, OK

12:45 AM CST on February 20, 2017 (GMT -0600)
West Woodward

Weather History for KWWR - January, 2014

Change the Weather History Date:

Monday, January 20, 2014

  Actual Average (KGAG) Record (KGAG)
Temperature  
Mean Temperature 46 °F -  
Max Temperature 59 °F 46 °F 86 °F (1986)
Min Temperature 32 °F 22 °F -2 °F (1984)
Degree Days  
Heating Degree Days 20    
Moisture  
Dew Point 16 °F    
Average Humidity 34    
Maximum Humidity 55    
Minimum Humidity 17    
Precipitation  
Precipitation 0.00 in - - ()
Sea Level Pressure  
Sea Level Pressure 30.09 in    
Wind  
Wind Speed 13 mph (NW)    
Max Wind Speed 25 mph    
Max Gust Speed 33 mph    
Visibility 10 miles    
Events      
Averages and records for this station are not official NWS values.
T = Trace of Precipitation, MM = Missing Value Source: NWS Daily Summary

Daily Weather History Graph

Daily Weather History Graph

Search for Another Location

Airport or City:

Trip Planner

Search our weather history database for the weather conditions in past years. The results will help you decide how hot, cold, wet, or windy it might be!

Date:

Astronomy

Jan. 20, 2014 Rise Set
Actual Time 7:47 AM CST 5:51 PM CST
Civil Twilight 7:19 AM CST 6:19 PM CST
Nautical Twilight 6:47 AM CST 6:50 PM CST
Astronomical Twilight 6:17 AM CST 7:21 PM CST
Moon 10:18 PM CST 9:55 AM CST
Length of Visible Light 11h 00m
Length of Day
10h 04m
Waning Gibbous, 82% of the Moon is Illuminated
Jan 20
Waning Gibbous
Jan 23
Last Quarter
Jan 30
New
Feb 6
First Quarter
Feb 14
Full

Hourly Weather History & Observations

Time (CST) Temp. Windchill Dew Point Humidity Pressure Visibility Wind Dir Wind Speed Gust Speed Precip Events Conditions
12:15 AM 42.8 °F 36.2 °F 14.0 °F 31% 29.90 in 10.0 mi SW 12.7 mph - N/A   Clear
12:35 AM 42.8 °F 37.0 °F 14.0 °F 31% 29.89 in 10.0 mi SW 10.4 mph - N/A   Clear
12:55 AM 41.0 °F 34.3 °F 14.0 °F 33% 29.88 in 10.0 mi SW 11.5 mph - N/A   Clear
1:15 AM 39.2 °F 32.5 °F 14.0 °F 36% 29.87 in 10.0 mi SSW 10.4 mph - N/A   Clear
1:35 AM 37.4 °F 29.8 °F 14.0 °F 38% 29.87 in 10.0 mi SW 11.5 mph - N/A   Clear
1:55 AM 35.6 °F 28.0 °F 14.0 °F 41% 29.87 in 10.0 mi WSW 10.4 mph - N/A   Clear
2:15 AM 33.8 °F 25.3 °F 15.8 °F 48% 29.87 in 10.0 mi SW 11.5 mph - N/A   Clear
2:35 AM 33.8 °F 25.8 °F 15.8 °F 48% 29.88 in 10.0 mi SW 10.4 mph - N/A   Clear
2:55 AM 32.0 °F 24.2 °F 15.8 °F 51% 29.88 in 10.0 mi WSW 9.2 mph - N/A   Clear
3:15 AM 32.0 °F 24.2 °F 15.8 °F 51% 29.88 in 10.0 mi WSW 9.2 mph - N/A   Clear
3:35 AM 32.0 °F 24.2 °F 17.6 °F 55% 29.89 in 10.0 mi West 9.2 mph - N/A   Clear
3:55 AM 32.0 °F 24.8 °F 15.8 °F 51% 29.89 in 10.0 mi WNW 8.1 mph - N/A   Clear
4:15 AM 32.0 °F 25.6 °F 17.6 °F 55% 29.88 in 10.0 mi NW 6.9 mph - N/A   Clear
4:35 AM 33.8 °F 28.6 °F 17.6 °F 52% 29.89 in 10.0 mi WNW 5.8 mph - N/A   Clear
4:55 AM 32.0 °F 24.8 °F 17.6 °F 55% 29.90 in 10.0 mi West 8.1 mph - N/A   Clear
5:15 AM 32.0 °F 24.2 °F 17.6 °F 55% 29.90 in 10.0 mi West 9.2 mph - N/A   Clear
5:35 AM 32.0 °F 23.6 °F 17.6 °F 55% 29.90 in 10.0 mi West 10.4 mph - N/A   Clear
5:55 AM 32.0 °F 23.0 °F 17.6 °F 55% 29.91 in 10.0 mi West 11.5 mph - N/A   Clear
6:15 AM 32.0 °F 24.2 °F 17.6 °F 55% 29.93 in 10.0 mi West 9.2 mph - N/A   Clear
6:35 AM 32.0 °F 26.4 °F 17.6 °F 55% 29.93 in 10.0 mi West 5.8 mph - N/A   Clear
6:55 AM 32.0 °F 25.6 °F 17.6 °F 55% 29.94 in 10.0 mi NW 6.9 mph - N/A   Clear
7:15 AM 32.0 °F 24.2 °F 17.6 °F 55% 29.93 in 10.0 mi West 9.2 mph - N/A   Clear
7:35 AM 32.0 °F 24.2 °F 17.6 °F 55% 29.94 in 10.0 mi West 9.2 mph - N/A   Clear
7:55 AM 33.8 °F 27.0 °F 17.6 °F 52% 29.95 in 10.0 mi West 8.1 mph - N/A   Clear
8:15 AM 33.8 °F 27.0 °F 17.6 °F 52% 29.96 in 10.0 mi West 8.1 mph - N/A   Clear
8:35 AM 35.6 °F 29.2 °F 17.6 °F 48% 29.97 in 10.0 mi West 8.1 mph - N/A   Clear
8:55 AM 41.0 °F 36.4 °F 17.6 °F 39% 29.99 in 10.0 mi West 6.9 mph - N/A   Clear
9:15 AM 44.6 °F 40.7 °F 17.6 °F 34% 30.00 in 10.0 mi WNW 6.9 mph - N/A   Clear
9:35 AM 46.4 °F 42.4 °F 17.6 °F 32% 30.01 in 10.0 mi NW 8.1 mph - N/A   Clear
9:55 AM 50.0 °F - 17.6 °F 28% 30.02 in 10.0 mi NNW 15.0 mph - N/A   Clear
10:15 AM 53.6 °F - 17.6 °F 24% 30.03 in 10.0 mi NNW 13.8 mph 26.5 mph N/A   Clear
10:35 AM 53.6 °F - 17.6 °F 24% 30.05 in 10.0 mi NNW 18.4 mph 25.3 mph N/A   Clear
10:55 AM 53.6 °F - 17.6 °F 24% 30.07 in 10.0 mi North 20.7 mph 26.5 mph N/A   Clear
11:15 AM 53.6 °F - 17.6 °F 24% 30.08 in 10.0 mi NNW 17.3 mph 24.2 mph N/A   Clear
11:35 AM 53.6 °F - 17.6 °F 24% 30.09 in 10.0 mi NNW 21.9 mph 27.6 mph N/A   Clear
11:55 AM 53.6 °F - 19.4 °F 26% 30.10 in 10.0 mi North 23.0 mph 29.9 mph N/A   Clear
12:15 PM 53.6 °F - 19.4 °F 26% 30.10 in 10.0 mi NNW 21.9 mph 29.9 mph N/A   Clear
12:35 PM 55.4 °F - 19.4 °F 25% 30.11 in 10.0 mi North 24.2 mph 32.2 mph N/A   Clear
12:55 PM 55.4 °F - 19.4 °F 25% 30.10 in 10.0 mi North 21.9 mph 33.4 mph N/A   Clear
1:15 PM 55.4 °F - 19.4 °F 25% 30.11 in 10.0 mi North 21.9 mph 31.1 mph N/A   Clear
1:35 PM 59.0 °F - 19.4 °F 22% 30.11 in 10.0 mi North 24.2 mph 33.4 mph N/A   Clear
1:55 PM 59.0 °F - 19.4 °F 22% 30.12 in 10.0 mi North 25.3 mph 31.1 mph N/A   Clear
2:15 PM 59.0 °F - 17.6 °F 20% 30.12 in 10.0 mi North 24.2 mph 32.2 mph N/A   Clear
2:35 PM 59.0 °F - 17.6 °F 20% 30.13 in 10.0 mi North 24.2 mph 31.1 mph N/A   Clear
2:55 PM 59.0 °F - 14.0 °F 17% 30.14 in 10.0 mi North 20.7 mph 27.6 mph N/A   Clear
3:15 PM 59.0 °F - 14.0 °F 17% 30.15 in 10.0 mi North 25.3 mph 32.2 mph N/A   Clear
3:35 PM 59.0 °F - 17.6 °F 20% 30.16 in 10.0 mi North 19.6 mph 25.3 mph N/A   Clear
3:55 PM 59.0 °F - 17.6 °F 20% 30.17 in 10.0 mi North 20.7 mph 28.8 mph N/A   Clear
4:15 PM 57.2 °F - 15.8 °F 20% 30.19 in 10.0 mi NNW 20.7 mph 25.3 mph N/A   Clear
4:35 PM 57.2 °F - 17.6 °F 21% 30.19 in 10.0 mi North 19.6 mph 31.1 mph N/A   Clear
4:55 PM 55.4 °F - 17.6 °F 23% 30.21 in 10.0 mi North 21.9 mph 28.8 mph N/A   Clear
5:15 PM 55.4 °F - 15.8 °F 21% 30.21 in 10.0 mi North 21.9 mph 28.8 mph N/A   Clear
5:35 PM 53.6 °F - 14.0 °F 21% 30.23 in 10.0 mi NNW 12.7 mph 25.3 mph N/A   Clear
5:55 PM 51.8 °F - 14.0 °F 22% 30.24 in 10.0 mi NNW 9.2 mph - N/A   Clear
6:15 PM 48.2 °F - 15.8 °F 27% 30.25 in 10.0 mi NNW 9.2 mph - N/A   Clear
6:35 PM 50.0 °F - 15.8 °F 26% 30.26 in 10.0 mi NNW 10.4 mph - N/A   Clear
6:55 PM 50.0 °F - 12.2 °F 22% 30.27 in 10.0 mi NNW 16.1 mph - N/A   Clear
7:15 PM 50.0 °F - 12.2 °F 22% 30.28 in 10.0 mi NNW 15.0 mph 20.7 mph N/A   Clear
7:35 PM 48.2 °F - 12.2 °F 24% 30.29 in 10.0 mi NNW 12.7 mph 18.4 mph N/A   Clear
7:55 PM 46.4 °F 41.9 °F 12.2 °F 25% 30.31 in 10.0 mi NW 9.2 mph - N/A   Scattered Clouds
8:15 PM 44.6 °F 40.2 °F 14.0 °F 29% 30.32 in 10.0 mi NW 8.1 mph - N/A   Mostly Cloudy
8:35 PM 46.4 °F 38.7 °F 12.2 °F 25% 30.33 in 10.0 mi NNW 20.7 mph 24.2 mph N/A   Overcast
8:55 PM 46.4 °F 40.4 °F 12.2 °F 25% 30.33 in 10.0 mi NNW 13.8 mph - N/A   Overcast
9:15 PM 46.4 °F 39.2 °F 14.0 °F 27% 30.33 in 10.0 mi NNW 18.4 mph 25.3 mph N/A   Overcast
9:35 PM 44.6 °F 36.9 °F 12.2 °F 27% 30.34 in 10.0 mi NNW 18.4 mph 23.0 mph N/A   Mostly Cloudy
9:55 PM 44.6 °F 37.4 °F 12.2 °F 27% 30.35 in 7.0 mi NNW 16.1 mph 19.6 mph N/A   Clear
10:15 PM 42.8 °F 35.8 °F 14.0 °F 31% 30.36 in 7.0 mi NNW 13.8 mph 19.6 mph N/A   Clear
10:35 PM 42.8 °F 35.1 °F 14.0 °F 31% 30.37 in 7.0 mi NNW 16.1 mph 19.6 mph N/A   Clear
10:55 PM 42.8 °F 36.2 °F 14.0 °F 31% 30.39 in 7.0 mi North 12.7 mph 18.4 mph N/A   Clear
11:15 PM 41.0 °F 33.9 °F 14.0 °F 33% 30.40 in 10.0 mi North 12.7 mph - N/A   Clear
11:35 PM 41.0 °F 31.6 °F 14.0 °F 33% 30.40 in 10.0 mi North 20.7 mph 24.2 mph N/A   Clear
11:55 PM 37.4 °F 28.5 °F 17.6 °F 45% 30.41 in 10.0 mi North 15.0 mph - N/A   Clear